This is the latest recevied weather packets stored in our database for station/object KJ4EBE. If no packets are shown the sender has not sent any weather packets the latest 10 day(s).
| Time | Temp. | Humidity | Pressure | Rain* | Wind** | Luminosity | Snow |
|---|---|---|---|---|---|---|---|
| 1777988291 | 22.22° C | 88% | 1007.1 hPa | 0 mm | - | 84 W/m² | - |
| 1777987989 | 22.78° C | 87% | 1007.3 hPa | 0 mm | - | 78 W/m² | - |
| 1777987684 | 22.78° C | 88% | 1007.1 hPa | 0 mm | - | 131 W/m² | - |
| 1777987381 | 22.22° C | 88% | 1006.9 hPa | 0 mm | - | 81 W/m² | - |
| 1777987079 | 22.22° C | 88% | 1006.9 hPa | 0 mm | - | 93 W/m² | - |
| 1777986776 | 22.22° C | 88% | 1006.9 hPa | 0 mm | - | 112 W/m² | - |
| 1777986474 | 22.22° C | 89% | 1006.8 hPa | 0 mm | - | 86 W/m² | - |
| 1777986172 | 22.22° C | 89% | 1006.8 hPa | 0 mm | - | 76 W/m² | - |
| 1777985868 | 22.22° C | 89% | 1006.7 hPa | 0 mm | - | 67 W/m² | - |
| 1777985566 | 21.67° C | 89% | 1006.6 hPa | 0 mm | - | 55 W/m² | - |
| 1777985262 | 21.67° C | 89% | 1006.7 hPa | 0 mm | - | 50 W/m² | - |
| 1777984959 | 21.67° C | 89% | 1006.4 hPa | 0 mm | - | 45 W/m² | - |
| 1777984654 | 21.67° C | 89% | 1006.4 hPa | 0 mm | - | 47 W/m² | - |
| 1777984352 | 21.67° C | 90% | 1006.4 hPa | 0 mm | - | 50 W/m² | - |
| 1777984048 | 21.67° C | 90% | 1006.3 hPa | 0 mm | - | 32 W/m² | - |
| 1777983745 | 21.67° C | 90% | 1006.2 hPa | 0 mm | - | 19 W/m² | - |
| 1777983437 | 21.67° C | 90% | 1006.2 hPa | 0 mm | - | 12 W/m² | - |
| 1777983133 | 21.67° C | 90% | 1006.4 hPa | 0 mm | - | 9 W/m² | - |
| 1777982830 | 21.67° C | 91% | 1006.1 hPa | 0 mm | - | 7 W/m² | - |
| 1777982525 | 21.11° C | 91% | 1006.2 hPa | 0 mm | - | 5 W/m² | - |
| 1777982218 | 21.11° C | 91% | 1006.2 hPa | 0 mm | - | 4 W/m² | - |
| 1777981917 | 21.11° C | 91% | 1006 hPa | 0 mm | - | 2 W/m² | - |
| 1777981614 | 21.11° C | 91% | 1005.8 hPa | 0 mm | - | 1 W/m² | - |
| 1777981310 | 21.11° C | 91% | 1006 hPa | 0 mm | - | 1 W/m² | - |
| 1777981007 | 21.11° C | 91% | 1006 hPa | 0 mm | - | 0 W/m² | - |
* Rain latest hour (hover to see other rain measurements)
** Current wind speed in m/s (hover to see current wind gust speed)